This demonstration page uses our WeatherBlox Daily Observations layout. Learn more.

38.88101, -77.10428

Hourly Observations for March 8, 2018

Temp ( °F °C ) Dew Point ( °F °C ) Humidity (%) Winds ( mph kmh ) Pressure ( in mb ) Visibility ( mi km ) Precip ( " mm )
12:52 am 00:52 Clear 38 3.3 24 -4.4 57 57 W 9 15 29.86 1011 10 16.0934 0 0
1:52 am 01:52 Clear 37 2.8 22 -5.6 54 54 WNW 10 17 29.86 1011 10 16.0934 0 0
2:52 am 02:52 Clear 37 2.8 21 -6.1 52 52 W 8 13 29.85 1011 10 16.0934 0 0
3:52 am 03:52 Clear 36 2.2 21 -6.1 55 55 WNW 9 15 29.86 1011 10 16.0934 0 0
4:52 am 04:52 Clear 35 1.7 19 -7.2 52 52 W 12 19 29.87 1012 10 16.0934 0 0
5:52 am 05:52 Clear 34 1.1 16 -8.9 48 48 W 8 13 29.88 1012 10 16.0934 0 0
6:52 am 06:52 Sunny 35 1.7 16 -8.9 46 46 W 7 11 29.89 1012 10 16.0934 0 0
7:52 am 07:52 Sunny 36 2.2 15 -9.4 42 42 WNW 13 20 29.9 1013 10 16.0934 0 0
8:52 am 08:52 Sunny 38 3.3 15 -9.4 39 39 W 12 19 29.9 1012 10 16.0934 0 0
9:52 am 09:52 Mostly Sunny 41 5 15 -9.4 35 35 NW 17 28 29.89 1012 10 16.0934 0 0
10:52 am 10:52 Mostly Sunny 42 5.6 16 -8.9 35 35 NW 18 30 29.87 1011 10 16.0934 0 0
11:52 am 11:52 Mostly Cloudy 41 5 15 -9.4 35 35 WNW 14 22 29.85 1011 10 16.0934 0 0
12:52 pm 12:52 Mostly Cloudy 43 6.1 15 -9.4 32 32 W 12 19 29.83 1010 10 16.0934 0 0
1:52 pm 13:52 Mostly Cloudy 42 5.6 14 -10 32 32 WNW 12 19 29.81 1009 10 16.0934 0 0
2:52 pm 14:52 Mostly Cloudy 44 6.7 15 -9.4 31 31 WNW 12 19 29.8 1009 10 16.0934 0 0
3:52 pm 15:52 Partly Cloudy 44 6.7 15 -9.4 31 31 WSW 13 20 29.78 1009 10 16.0934 0 0
4:52 pm 16:52 Mostly Cloudy 43 6.1 14 -10 31 31 WSW 6 9 29.79 1009 10 16.0934 0 0
5:38 pm 17:38 Mostly Cloudy 40 4.4 23 -5 51 51 WNW 16 26 29.83 1010 10 16.0934 0 0
5:52 pm 17:52 Mostly Cloudy 40 4.4 21 -6.1 47 47 NW 12 19 29.82 1010 10 16.0934 0 0
6:52 pm 18:52 Mostly Cloudy 38 3.3 20 -6.7 48 48 NW 12 19 29.85 1011 10 16.0934 0 0
7:52 pm 19:52 Mostly Clear 36 2.2 21 -6.1 55 55 NW 12 19 29.86 1011 10 16.0934 0 0
8:52 pm 20:52 Mostly Cloudy 36 2.2 19 -7.2 50 50 WNW 10 17 29.87 1011 10 16.0934 0 0
9:52 pm 21:52 Mostly Cloudy 36 2.2 17 -8.3 46 46 W 12 19 29.87 1012 10 16.0934 0 0
10:52 pm 22:52 Partly Cloudy 35 1.7 19 -7.2 52 52 WNW 9 15 29.88 1012 10 16.0934 0 0
11:52 pm 23:52 Mostly Cloudy 34 1.1 18 -7.8 52 52 W 10 17 29.88 1012 10 16.0934 0 0

Powered by AerisWeather